User: anonymous   Login
Location: Unspecified
(0.0000°N, 0.0000°E)
Time: 17:33:55
(UTC+00:00)
Language:

P76-5 - Orbit

View from above orbital plane
View from above orbital plane
View from above satellite
View from above satellite

Ground track
Ground track

The orbit data is extracted from the following two-line orbital elements,

1 08860U 76047A   18050.19921032  .00000006  00000-0  60863-4 0  9990
2 08860  99.6870 164.8521 0042594 177.2706 244.5260 13.67571409 81043
Epoch (UTC): 19 February 2018 04:46:51
Eccentricity: 0.0042594
inclination: 99.6870°
perigee height: 977 km
apogee height: 1040 km
right ascension of ascending node: 164.8521°
argument of perigee: 177.2706°
revolutions per day: 13.67571409
mean anomaly at epoch: 244.5260°
orbit number at epoch: 8104

The dashed part of the orbit path shows where the satellite is in the earth's shadow,  

DLR